WC0AA Weather Reports


time (UTC)temp
F
wind
direction
speed
knots
gust
knots
rain 1hr
in
rain 24hr
in
rain mn
in
humidity
%
barometer
mb
20260507154004 62 229 5.2 11.3 0.00 0.00 0.00 50 1013.9
20260507153004 62 221 5.2 10.4 0.00 0.00 0.00 51 1014.1
20260507152005 61 224 5.2 13.0 0.00 0.00 0.00 52 1014.1
20260507151004 60 225 4.3 13.0 0.00 0.00 0.00 54 1014.1
20260507150004 60 219 7.8 11.3 0.00 0.00 0.00 54 1014.1
20260507145004 59 213 7.8 7.8 0.00 0.00 0.00 56 1014.3
20260507144004 58 215 6.1 8.7 0.00 0.00 0.00 58 1014.4
20260507143004 56 213 7.8 10.4 0.00 0.00 0.00 61 1014.5
20260507142005 55 209 4.3 10.4 0.00 0.00 0.00 63 1014.7
20260507141004 55 201 4.3 8.7 0.00 0.00 0.00 64 1014.7
20260507140005 54 248 8.7 7.0 0.00 0.00 0.00 66 1014.8
20260507134004 53 246 0.0 0.0 0.00 0.00 0.00 68 1014.9
20260507133005 52 253 0.0 0.0 0.00 0.00 0.00 71 1014.9
20260507132004 51 229 0.0 0.0 0.00 0.00 0.00 72 1014.9
20260507131004 51 234 0.0 0.0 0.00 0.00 0.00 73 1014.9
20260507130004 50 226 0.0 0.0 0.00 0.00 0.00 75 1015.0
20260507125004 50 225 0.0 0.9 0.00 0.00 0.00 76 1014.7
20260507124004 49 202 0.0 0.9 0.00 0.00 0.00 77 1014.7
20260507123005 48 202 0.0 7.0 0.00 0.00 0.00 78 1014.6
20260507122004 48 209 7.0 10.4 0.00 0.00 0.00 80 1014.5
20260507121004 47 223 5.2 7.8 0.00 0.00 0.00 82 1014.5
20260507120005 46 215 6.1 8.7 0.00 0.00 0.00 83 1014.6
20260507115004 46 180 0.0 0.0 0.00 0.00 0.00 85 1014.8
20260507114004 45 207 0.0 5.2 0.00 0.00 0.00 86 1015.0
20260507113005 44 195 0.0 0.0 0.00 0.00 0.00 87 1015.0
20260507111004 44 202 0.0 0.0 0.00 0.00 0.00 87 1015.1
20260507110004 44 202 0.0 0.0 0.00 0.00 0.00 87 1015.1
20260507105004 44 202 0.0 0.0 0.00 0.00 0.00 87 1015.2
20260507103004 44 215 0.0 0.0 0.00 0.00 0.00 87 1015.2
20260507102006 44 202 0.0 0.0 0.00 0.00 0.00 87 1015.3
20260507101005 44 202 0.0 0.0 0.00 0.00 0.00 86 1015.3
20260507100005 44 225 0.0 2.6 0.00 0.00 0.00 86 1015.4
20260507094004 44 202 0.0 2.6 0.00 0.00 0.00 85 1015.6
20260507093004 44 232 0.0 0.0 0.00 0.00 0.00 84 1015.7
20260507092004 44 231 0.0 0.0 0.00 0.00 0.00 84 1015.6
20260507091005 45 215 0.0 0.0 0.00 0.00 0.00 83 1015.6
20260507090005 45 243 0.0 0.0 0.00 0.00 0.00 82 1015.7
20260507084004 45 212 0.0 0.0 0.00 0.00 0.00 81 1015.9
20260507083004 45 202 0.0 0.0 0.00 0.00 0.00 81 1016.0
20260507082004 44 212 0.0 0.0 0.00 0.00 0.00 80 1016.0
20260507081004 45 215 0.0 0.0 0.00 0.00 0.00 79 1016.0
20260507080004 44 206 0.0 0.0 0.00 0.00 0.00 79 1016.0
20260507075004 44 202 0.0 0.0 0.00 0.00 0.00 78 1016.2
20260507074004 44 202 0.0 0.0 0.00 0.00 0.00 78 1016.2
20260507072004 45 215 0.0 0.0 0.00 0.00 0.00 76 1016.5
20260507071004 45 206 0.0 0.0 0.00 0.00 0.00 74 1016.6
20260507070008 46 228 0.0 0.0 0.00 0.00 0.00 74 1016.7
20260507065004 46 212 0.0 0.0 0.00 0.00 0.00 73 1016.9
20260507064004 46 238 0.0 0.0 0.00 0.00 0.00 72 1017.0
20260507062004 47 206 0.0 0.0 0.00 0.00 0.00 70 1016.9
20260507060004 47 202 0.0 0.0 0.00 0.00 0.00 68 1017.0
20260507053004 48 225 0.0 0.0 0.00 0.00 0.00 64 1017.2
20260507052004 48 202 0.0 0.0 0.00 0.00 0.00 63 1017.1
20260507051004 49 248 0.0 0.0 0.00 0.00 0.00 61 1017.1
20260507050005 49 211 0.0 0.0 0.00 0.00 0.00 60 1017.1
20260507045004 49 222 0.0 0.0 0.00 0.00 0.00 59 1017.1
20260507043004 49 220 0.0 0.0 0.00 0.00 0.00 56 1017.2
20260507042004 48 202 0.0 0.0 0.00 0.00 0.00 56 1017.1
20260507034004 47 158 0.0 0.0 0.00 0.00 0.00 59 1017.2
20260507033004 47 158 0.0 0.0 0.00 0.00 0.00 58 1017.3
20260507032004 47 177 0.0 0.0 0.00 0.00 0.00 59 1017.2
20260507031004 47 180 0.0 0.0 0.00 0.00 0.00 59 1017.1
20260507030004 46 180 0.0 0.0 0.00 0.00 0.00 61 1017.1
20260507025004 47 180 0.0 0.0 0.00 0.00 0.00 62 1017.1
20260507024004 47 202 0.0 0.0 0.00 0.00 0.00 61 1017.0
20260507023004 47 202 0.0 0.0 0.00 0.00 0.00 60 1016.8
20260507022004 48 202 0.0 0.0 0.00 0.00 0.00 56 1016.8
20260507020004 49 202 0.0 0.0 0.00 0.00 0.00 52 1016.7
20260507015004 50 202 0.0 0.0 0.00 0.00 0.00 46 1016.7
20260507014004 51 315 0.0 0.0 0.00 0.00 0.00 45 1016.6
20260507013005 52 202 0.0 0.0 0.00 0.00 0.00 42 1016.6
20260507012004 53 202 0.0 0.0 0.00 0.00 0.00 42 1016.5
20260507011004 55 202 0.0 0.0 0.00 0.00 0.00 40 1016.5
20260507010004 56 270 0.0 0.0 0.00 0.00 0.00 37 1016.7
20260507005004 57 280 0.0 0.0 0.00 0.00 0.00 36 1016.6
20260507003004 59 295 0.0 1.7 0.00 0.00 0.00 34 1016.6
20260507002004 59 22 0.9 6.1 0.00 0.00 0.00 33 1016.6
20260507001004 59 11 0.9 6.1 0.00 0.00 0.00 34 1016.6
20260507000004 59 281 0.0 4.3 0.00 0.00 0.00 33 1016.7
20260506234004 61 326 2.6 8.7 0.00 0.00 0.00 31 1016.8
20260506233004 61 283 2.6 6.1 0.00 0.00 0.00 31 1016.8
20260506232004 62 332 0.0 2.6 0.00 0.00 0.00 30 1016.8
20260506231004 62 293 3.5 7.0 0.00 0.00 0.00 31 1016.8
20260506230004 64 277 2.6 6.1 0.00 0.00 0.00 29 1016.9
20260506224004 63 21 2.6 7.0 0.00 0.00 0.00 29 1017.0
20260506223004 63 282 1.7 7.8 0.00 0.00 0.00 30 1017.1
20260506221004 64 26 1.7 7.0 0.00 0.00 0.00 29 1017.1
20260506220004 62 221 0.0 6.1 0.00 0.00 0.00 31 1017.2
20260506215004 63 298 1.7 8.7 0.00 0.00 0.00 30 1017.3
20260506214004 65 7 1.7 8.7 0.00 0.00 0.00 28 1017.5
20260506213004 65 349 2.6 7.0 0.00 0.00 0.00 29 1017.7
20260506203005 65 274 7.8 11.3 0.00 0.00 0.00 29 1018.5
20260506202004 63 9 10.4 11.3 0.00 0.00 0.00 30 1018.7
20260506201004 63 309 0.9 8.7 0.00 0.00 0.00 32 1018.7
20260506195004 61 326 4.3 8.7 0.00 0.00 0.00 31 1018.8
20260506194004 63 86 13.9 17.4 0.00 0.00 0.00 30 1018.8
20260506193004 62 262 0.0 11.3 0.00 0.00 0.00 33 1018.7
20260506192004 63 28 7.8 8.7 0.00 0.00 0.00 29 1018.8
20260506191004 61 183 0.9 7.0 0.00 0.00 0.00 30 1018.8
20260506190004 63 358 2.6 8.7 0.00 0.00 0.00 31 1018.8
20260506185004 63 355 7.0 13.0 0.00 0.00 0.00 30 1018.9
20260506184005 62 22 2.6 8.7 0.00 0.00 0.00 30 1018.8
20260506183005 62 20 5.2 13.0 0.00 0.00 0.00 30 1018.9
20260506182004 62 50 12.2 19.1 0.00 0.00 0.00 30 1019.3
20260506181004 62 327 10.4 11.3 0.00 0.00 0.00 30 1019.3
20260506180005 61 283 2.6 8.7 0.00 0.00 0.00 31 1019.3
20260506175004 62 296 11.3 13.0 0.00 0.00 0.00 30 1019.4
20260506174005 60 54 0.9 8.7 0.00 0.00 0.00 31 1019.6
20260506173004 61 311 6.1 12.2 0.00 0.00 0.00 31 1019.6
20260506172004 63 350 3.5 15.6 0.00 0.00 0.00 30 1019.7
20260506171004 60 212 0.9 6.1 0.00 0.00 0.00 36 1019.7
20260506170004 61 16 5.2 11.3 0.00 0.00 0.00 32 1019.8
20260506165005 60 332 0.9 6.1 0.00 0.00 0.00 35 1019.8
20260506164004 59 24 1.7 10.4 0.00 0.00 0.00 35 1019.8
20260506163005 58 68 0.0 6.1 0.00 0.00 0.00 37 1019.9
20260506162004 56 49 0.0 6.1 0.00 0.00 0.00 40 1019.9
20260506161005 56 9 5.2 7.8 0.00 0.00 0.00 39 1019.9
20260506160005 54 22 0.0 0.0 0.00 0.00 0.00 40 1020.0
20260506155004 53 10 3.5 6.1 0.00 0.00 0.00 42 1019.9